Location: São Paulo
(23.5507°S, 46.6334°W)
Time: 23:41:01
(UTC-03:00)

Hubble Space Telescope - Pass Details

Date: 31 July 2021
Orbit: 535 x 539 km, 28.5° (Epoch: 23 September)

Event Time Altitude Azimuth Distance (km) Brightness Sun altitude
Exits shadow 04:25:09 21° 113° (ESE) 1,254 3.1 -31.3°
Drops below altitude 10° 04:26:34 10° 110° (ESE) 1,794 4.1 -31.0°
Sets 04:28:51 0° 108° (ESE) 2,688 5.3 -30.5°
